ULTP

Last updated on Fri Jun 12 2020 00:02:03 GMT+0000 (Coordinated Universal Time)

1 45605U 20011D 20162.82872034 .00000925 00000-0 45923-4 0 9992 2 45605 51.6498 24.3817 0007924 86.7220 273.4667 15.28221152 4320
UTC large
Height (km)
Speed (km/s)
/
Latitude / Longitude
Inclination (degrees)
Orbital Period (minutes)
Azimuth
Elevation
Range (km)
Doppler Factor

Next 0 passes for location: London (51.5072 / 0.1276)

Sorry there are no passes over London.